Ephrata, WA
on Wednesday, January 9, 2013

Wednesday
Previous Day Next Day
Daily Summary
 ActualAverageRecord
Temperature
Mean Temperature °F 28°F  
Max Temperature 46°F 34°F 56°F (1953)
Min Temperature 34°F 22°F -12°F (1974)
Degree Days
Heating Degree Days 25 37  
Month to date heating degree days 330 342  
Since 1 July heating degree days 2585 2928  
Cooling Degree Days 0 0  
Month to date cooling degree days 0 0  
Year to date cooling degree days 0 0  
Moisture
Dew Point 30°F   
Average Humidity 72    
Maximum Humidity 92    
Minimum Humidity 52    
Precipitation
Precipitation 0.00 in 0.03 in 0.55 in (1995)
Month to date precipitation 0.18 0.30  
Year to date precipitation 0.18 0.30  
Wind
Wind Speed 9 mph   
Max Wind Speed 22 mph   
Max Gust Speed 26 mph   
Visibility 10 miles   
Events     

Key: T is trace of precipitation, MM is missing value
Source: NWS Daily Summary
Time(PST)TemperatureDew PointHumidity Pressure Visibility Wind DirectionWind SpeedGust SpeedPrecipitationEvents Conditions
12:53 AM 37.9°F 35.1°F 89% 29.78 in 10.0 miles SW 10.4 mph - N/A   Clear
1:53 AM 42.1°F 34.0°F 73% 29.77 in 10.0 miles SSW 18.4 mph - N/A   Clear
2:53 AM 41.0°F 34.0°F 76% 29.77 in 10.0 miles SW 11.5 mph - N/A   Clear
3:53 AM 39.0°F 33.1°F 79% 29.75 in 10.0 miles SW 10.4 mph - N/A   Clear
4:53 AM 41.0°F 32.0°F 70% 29.73 in 10.0 miles SW 8.1 mph - N/A   Clear
5:53 AM 43.0°F 30.9°F 62% 29.70 in 10.0 miles WSW 10.4 mph - N/A   Clear
6:53 AM 39.0°F 30.9°F 73% 29.68 in 10.0 miles Calm Calm - N/A   Clear
7:53 AM 42.1°F 32.0°F 67% 29.65 in 10.0 miles SSE 12.7 mph - N/A   Clear
9:53 AM 43.0°F 34.0°F 71% 29.60 in 10.0 miles South 18.4 mph - N/A   Clear
10:53 AM 45.0°F 34.0°F 65% 29.61 in 10.0 miles SSW 13.8 mph - N/A   Clear
11:53 AM 46.0°F 35.1°F 66% 29.59 in 10.0 miles South 12.7 mph - N/A   Partly Cloudy
12:53 PM 45.0°F 34.0°F 65% 29.60 in 10.0 miles SW 6.9 mph - N/A   Clear
2:53 PM 43.0°F 30.0°F 60% 29.64 in 10.0 miles West 5.8 mph - N/A   Clear
3:53 PM 44.1°F 28.0°F 53% 29.67 in 10.0 miles WSW 15.0 mph 19.6 mph N/A   Clear
4:53 PM 42.1°F 27.0°F 55% 29.68 in 10.0 miles West 11.5 mph - N/A   Clear
5:53 PM 41.0°F 27.0°F 57% 29.72 in 10.0 miles Variable 4.6 mph - N/A   Clear
6:53 PM 39.9°F 26.1°F 58% 29.74 in 10.0 miles WSW 5.8 mph - N/A   Clear
7:53 PM 39.9°F 24.1°F 53% 29.75 in 10.0 miles WSW 3.5 mph - N/A   Clear
8:53 PM 37.0°F 24.1°F 59% 29.76 in 10.0 miles Calm Calm - N/A   Clear
9:53 PM 34.0°F 24.1°F 67% 29.79 in 10.0 miles SSE 5.8 mph - N/A   Clear
10:53 PM 37.0°F 21.0°F 52% 29.79 in 10.0 miles Variable 5.8 mph - N/A   Clear
11:53 PM 37.0°F 19.9°F 50% 29.80 in 10.0 miles WSW 9.2 mph - N/A   Clear
Moon Phase
Jan. 09 Jan. 11 Jan. 18 Jan. 26 Feb. 03
Sunrise:07:43 AM (PST) Moon Rise:05:28 AM (PST)1/9
Sunset:04:27 PM (PST) Moon Set:02:34 PM (PST)1/9

Copyright © 2014 The Weather Underground, Inc.